Powrót do katalogu

TIROS 10

AktywnyPogodaSSO
NORAD 1430·PAYLOAD·🇺🇸 United States

Wystrzelony Jul 2, 1965 z Cape Canaveral Space Force Station

Loading…

Następne Przeloty (najbliższe 24 godziny)

TLE

ŚwieżeSource: Space-Track

Epoka: Sep 14, 2026, 18:49 UTC

1 01430U 65051A   26257.78424743  .00000125  00000-0  51311-4 0  9999
2 01430  98.5136  16.7677 0055511 168.9262 191.3163 14.41656305208826

Śledź TIROS 10 w czasie rzeczywistym z AllMySat

Download on the App Store